This demonstration page uses our WeatherBlox Daily Observations layout. Learn more.

Left ArrowRight Arrow

36.19886, -115.1175

Hourly Observations for August 17, 2021

Temp ( °F °C ) Dew Point ( °F °C ) Humidity (%) Winds ( mph kmh ) Pressure ( in mb ) Visibility ( mi km ) Precip ( " mm )
12:53 am 00:53 Clear 97 36.1 58 14.4 27 27 S 7 11 29.66 1004 10 16 0.00 0.00
1:53 am 01:53 Clear 94 34.4 59 15 31 31 SSW 7 11 29.66 1004 10 16 0.00 0.00
2:53 am 02:53 Clear 92 33.3 59 15 33 33 SSE 3 6 29.67 1005 10 16 0.00 0.00
3:53 am 03:53 Clear 91 32.8 59 15 34 34 E 7 11 29.68 1005 10 16 0.00 0.00
4:53 am 04:53 Clear 89 31.7 60 15.6 38 38 E 9 15 29.68 1005 10 16 0.00 0.00
5:53 am 05:53 Clear 90 32.2 53 11.7 28 28 ESE 9 15 29.70 1006 10 16 0.00 0.00
6:53 am 06:53 Sunny 90 32.2 56 13.3 32 32 SE 12 19 29.72 1007 10 16 0.00 0.00
7:53 am 07:53 Sunny with Smoke 92 33.3 59 15 33 33 SE 9 15 29.73 1007 10 16 0.00 0.00
8:53 am 08:53 Sunny with Smoke 94 34.4 58 14.4 30 30 SE 14 22 29.73 1007 10 16 0.00 0.00
9:53 am 09:53 Sunny with Smoke 97 36.1 60 15.6 29 29 SE 18 30 29.72 1007 10 16 0.00 0.00
10:53 am 10:53 Sunny with Smoke 98 36.7 61 16.1 29 29 SSE 17 28 29.71 1006 10 16 0.00 0.00
11:53 am 11:53 Sunny with Smoke 101 38.3 61 16.1 27 27 SE 21 33 29.69 1005 10 16 0.00 0.00
12:53 pm 12:53 Sunny with Smoke 104 40 57 13.9 21 21 SSW 15 24 29.66 1004 10 16 0.00 0.00
1:53 pm 13:53 Sunny with Smoke 105 40.6 58 14.4 21 21 S 17 28 29.63 1004 10 16 0.00 0.00
2:53 pm 14:53 Sunny with Smoke 106 41.1 57 13.9 20 20 S 23 37 29.59 1002 10 16 0.00 0.00
3:53 pm 15:53 Sunny with Smoke 106 41.1 55 12.8 19 19 SSW 18 30 29.56 1001 10 16 0.00 0.00
4:53 pm 16:53 Sunny with Smoke 106 41.1 56 13.3 19 19 SSW 17 28 29.54 1001 10 16 0.00 0.00
5:53 pm 17:53 Sunny with Smoke 104 40 57 13.9 21 21 SSW 20 31 29.53 1000 10 16 0.00 0.00
6:53 pm 18:53 Sunny with Smoke 102 38.9 58 14.4 23 23 SSW 16 26 29.54 1000 10 16 0.00 0.00
7:53 pm 19:53 Clear with Smoke 100 37.8 58 14.4 25 25 S 16 26 29.57 1001 10 16 0.00 0.00
8:53 pm 20:53 Clear with Smoke 98 36.7 61 16.1 29 29 S 17 28 29.59 1002 10 16 0.00 0.00
9:53 pm 21:53 Clear with Smoke 97 36.1 60 15.6 29 29 S 16 26 29.60 1003 10 16 0.00 0.00
10:53 pm 22:53 Clear with Smoke 95 35 60 15.6 31 31 S 14 22 29.62 1003 10 16 0.00 0.00
11:53 pm 23:53 Clear with Smoke 93 33.9 52 11.1 25 25 S 14 22 29.62 1003 10 16 0.00 0.00

Powered by AerisWeather